Location: Cerda�ola
(41.4919°N, 2.1403°E)
Time: 01:50:06
(UTC+00:00)

USA 186 - Pass Details

Date: 29 March 2020
Orbit: 263 x 445 km, 96.9° (Epoch: 31 May)

Event Time Altitude Azimuth Distance (km) Brightness Sun altitude
Rises 17:31:50 0° 72° (ENE) 2,470 5.0 7.0°
Enters shadow 18:33:23 -57° 166° (SSE) 11,085 8.8 -4.5°
Maximum altitude 19:03:09 37° 74° (ENE) 726 2.5 -9.9°
